Hourly Data Report for June 18, 2021

MIRAMICHI RCS
NEW BRUNSWICK
Current Station Operator: ECCC - MSC

47°00'34.000" N
65°27'54.000" W
33.00 m
8100989
71744
ACQ

Download Data

Hourly Data (June 2021)
Hourly Data Report for June 18, 2021
TIME
LST
Temp Definition
°C
Dew Point Definition
°C
Rel Hum Definition
%
Precip. Amount Definition
mm

Wind Dir Definition
10's deg

Wind Spd Definition
km/h
Visibility Definition
km
Stn Press Definition
kPa
Hmdx Definition


Wind Chill Definition


Weather Definition


00:00 12.8 9.8 82 LegendMM 25 9   100.66     LegendNANA
01:00 11.7 9.4 86 LegendMM 28 8   100.67     LegendNANA
02:00 11.6 9.4 87 LegendMM 25 8   100.69     LegendNANA
03:00 11.2 9.1 87 LegendMM 25 10   100.69     LegendNANA
04:00 9.8 8.1 89 LegendMM 21 5   100.73     LegendNANA
05:00 9.4 8.1 92 LegendMM 21 6   100.76     LegendNANA
06:00 11.3 9.2 87 LegendMM 19 7   100.82     LegendNANA
07:00 14.2 10.0 76 LegendMM 23 12   100.80     LegendNANA
08:00 16.7 10.6 67 LegendMM 23 12   100.79     LegendNANA
09:00 19.7 11.6 60 LegendMM 22 13   100.78     LegendNANA
10:00 21.6 11.4 52 LegendMM 22 17   100.75     LegendNANA
11:00 23.8 11.1 45 LegendMM 22 17   100.68 26   LegendNANA
12:00 25.5 9.4 36 LegendMM 22 20   100.62 27   LegendNANA
13:00 26.3 8.8 33 LegendMM 22 25   100.56 27   LegendNANA
14:00 27.1 8.1 30 LegendMM 22 26   100.51 28   LegendNANA
15:00 27.1 6.6 27 LegendMM 21 27   100.46 27   LegendNANA
16:00 27.1 7.3 28 LegendMM 24 26   100.41 27   LegendNANA
17:00 27.2 7.2 28 LegendMM 23 26   100.40 27   LegendNANA
18:00 26.6 6.2 27 LegendMM 23 25   100.37 26   LegendNANA
19:00 25.4 7.9 33 LegendMM 23 15   100.39 26   LegendNANA
20:00 22.9 9.1 41 LegendMM 19 19   100.40     LegendNANA
21:00 21.0 8.0 43 LegendMM 19 19   100.42     LegendNANA
22:00 18.7 8.3 51 LegendMM 19 10   100.43     LegendNANA
23:00 17.4 8.1 54 LegendMM 19 12   100.42     LegendNANA

Notes on Data Quality.

Legend

  • E = Estimated
  • M = Missing
  • NA = Not Available*
  • [empty] = Indicates an unobserved value
Date modified: